Wind_Speed
25 25 25 25 25 24 24 23 23 24 24 24 25 25 25 25 25 25 25 26 26 26 26 26 26 26 26 26 26 26 25 25 25 25 25 25 25 25 25 25 26 26 26 25 25 24 24 24 23 22 22 21
25 25 26 26 26 26 25 25 25 25 25 25 25 26 26 26 25 26 26 27 27 27 27 27 27 27 27 27 27 27 26 26 27 27 26 26 26 26 26 26 27 27 27 27 27 26 26 26 25 24 24 23
25 26 26 26 27 27 27 27 27 27 27 27 27 28 28 26 26 26 27 28 28 28 28 27 27 27 27 27 28 28 27 27 28 28 28 28 28 28 28 28 28 28 28 28 28 28 28 27 27 26 26 25
25 26 26 26 27 27 27 27 28 28 28 28 29 29 28 27 28 27 28 29 29 29 29 28 28 27 27 28 28 29 29 29 29 29 29 29 30 30 30 30 30 30 30 30 30 30 30 29 29 28 28 27
26 27 27 27 27 27 27 27 28 29 29 29 29 30 29 29 29 29 29 29 29 29 29 28 28 28 28 29 29 29 30 30 30 30 30 31 31 31 31 32 32 32 32 32 32 31 31 31 31 31 30 29
28 28 28 28 28 28 28 28 29 29 29 29 29 30 30 30 30 29 30 30 30 29 28 28 29 29 29 30 30 31 31 31 32 32 32 32 33 33 33 34 34 34 34 34 34 33 33 33 32 32 32 32
29 29 29 29 29 30 30 30 30 29 29 29 30 30 31 31 31 30 31 31 30 29 29 29 30 31 31 31 32 32 32 33 33 33 34 34 34 35 35 35 36 36 36 36 36 35 35 35 34 33 33 32
29 30 30 30 30 31 32 32 32 32 31 31 31 31 32 32 32 32 32 32 32 31 31 30 31 31 32 33 33 34 34 34 34 35 35 35 36 36 36 37 37 37 37 37 37 37 37 37 36 36 35 34
31 31 31 32 32 32 33 34 34 34 34 34 34 34 34 34 34 34 34 34 34 33 33 32 32 32 33 34 35 35 35 35 36 36 36 37 37 38 38 38 38 38 38 38 38 38 38 38 38 37 37 36
33 33 34 34 34 34 35 36 36 36 36 35 35 35 35 35 35 36 36 35 35 34 34 33 33 33 33 34 35 36 36 37 37 37 38 38 38 39 40 40 40 40 39 39 39 39 39 39 39 39 38 38
36 36 36 37 37 37 38 38 38 38 37 37 37 37 37 37 37 37 37 37 36 36 35 35 34 34 34 35 35 36 37 37 38 39 39 40 40 41 42 42 42 41 41 41 41 41 40 40 40 40 40 39
39 39 39 39 40 40 40 40 40 40 39 39 38 39 39 39 39 39 39 38 38 37 37 36 36 36 36 36 36 37 38 38 39 40 41 42 42 43 43 44 44 44 43 43 43 42 42 42 42 42 41 41
41 41 41 41 42 42 42 42 42 42 41 41 41 41 41 41 41 41 40 40 39 39 38 38 38 37 37 37 38 38 39 39 40 41 42 43 44 45 45 46 46 46 45 45 45 44 44 44 44 43 43 43
41 42 42 42 43 43 43 43 43 43 43 43 43 43 43 43 43 43 42 42 42 41 41 40 39 39 38 38 39 39 40 41 41 42 43 45 46 46 47 47 47 47 47 46 46 46 46 45 45 44 44 44
41 42 42 42 43 43 43 43 43 43 43 44 44 45 45 45 45 45 44 44 44 43 43 42 42 41 40 40 40 41 41 42 42 43 44 45 46 47 48 48 48 48 48 47 47 47 47 47 47 46 45 45
41 41 42 42 42 43 43 43 44 44 44 44 45 45 45 46 46 46 46 46 46 45 45 44 44 43 42 41 41 41 42 42 42 43 44 45 47 47 48 48 49 49 49 49 48 48 48 48 48 47 47 46
40 40 41 41 41 41 42 43 43 44 44 45 45 46 46 47 47 48 48 48 47 47 46 45 45 45 44 43 43 42 42 42 42 42 43 44 45 47 47 48 48 49 49 49 49 48 48 48 48 48 47 47
38 39 39 40 40 41 42 42 43 44 44 45 45 46 47 47 47 47 48 48 48 47 47 46 46 45 45 44 44 43 43 43 43 42 43 43 44 45 46 47 48 48 49 49 49 48 48 48 47 47 47 46
37 38 38 39 40 41 42 42 43 44 44 45 45 45 46 46 46 47 47 48 47 47 47 47 46 46 45 45 44 44 44 44 44 44 44 44 44 45 45 46 47 48 49 49 49 48 48 48 48 47 47 47
37 38 39 39 40 41 42 43 43 44 44 45 45 45 45 45 46 46 46 47 47 46 47 47 47 47 46 46 45 45 45 45 45 45 45 46 46 46 46 46 47 48 48 49 49 48 48 48 48 48 48 48
36 38 39 40 41 42 43 44 45 45 45 46 46 47 47 47 47 46 46 46 46 46 47 47 48 48 48 48 47 47 46 47 47 47 47 47 47 48 48 48 48 48 49 49 49 49 49 49 49 49 49 48
35 36 38 40 41 42 44 45 46 47 47 48 48 49 49 49 49 49 49 48 48 48 48 48 49 49 49 49 49 49 49 49 49 49 49 48 48 50 50 50 50 50 50 50 50 50 50 50 50 50 49 49
35 36 38 39 41 42 44 45 47 48 49 49 50 50 51 51 51 51 51 51 50 50 50 50 49 49 49 50 50 50 50 50 50 51 51 51 51 51 52 53 53 53 53 53 53 52 52 51 51 51 50 50
36 37 38 39 41 42 44 45 46 47 49 50 50 50 51 52 52 52 51 51 51 50 50 50 50 49 49 49 49 50 50 50 50 51 51 52 52 52 53 54 55 56 56 56 56 55 55 54 53 53 52 52
37 38 39 41 42 43 44 45 46 47 48 50 50 50 51 52 52 53 53 52 52 52 51 51 50 50 49 49 49 50 50 50 50 50 50 50 51 52 52 53 55 57 58 59 58 58 58 57 56 56 55 55
38 40 42 43 44 46 46 48 49 50 51 52 53 54 54 55 55 56 56 56 56 55 55 54 53 53 52 52 52 52 51 51 51 51 50 50 50 51 51 52 53 55 57 59 59 60 60 59 59 58 58 58
41 43 45 47 48 50 51 52 53 53 54 55 55 56 57 57 57 58 58 58 58 57 57 57 56 56 55 55 55 54 54 54 53 53 52 52 52 51 51 51 52 53 54 56 57 59 60 60 60 60 60 60
46 48 50 51 52 53 53 53 54 54 54 54 54 55 55 55 56 56 57 57 57 57 57 57 57 56 56 56 56 56 56 56 56 56 55 55 54 53 53 52 52 53 54 55 55 57 58 58 59 59 59 60
48 50 50 50 51 51 51 51 52 52 52 52 52 52 52 52 52 53 53 53 54 54 54 55 55 55 55 55 55 56 56 56 57 57 57 57 57 56 56 55 54 54 55 56 56 57 57 57 58 58 58 58
48 48 49 49 49 49 49 50 50 51 51 51 50 50 49 49 49 50 50 51 51 51 51 51 51 51 51 52 52 53 54 55 56 56 57 57 58 58 58 58 57 57 56 56 56 57 58 58 59 58 57 58
47 48 48 48 48 48 48 48 48 49 49 49 49 49 48 47 47 47 48 48 48 49 49 49 49 48 48 48 49 50 51 52 53 54 54 55 56 57 58 58 59 59 58 57 57 56 57 58 59 59 59 59
Wind_Direction
281 282 282 281 281 280 279 277 275 273 272 271 270 270 270 270 270 270 270 269 268 266 265 264 263 262 262 261 260 259 259 260 261 261 261 261 262 262 263 265 267 269 269 268 267 265 264 262 261 260 258 256
279 279 279 279 279 278 277 276 275 274 273 272 272 271 271 271 271 271 270 269 268 267 266 264 263 262 262 261 261 260 259 259 260 260 260 260 260 260 261 261 262 265 267 267 266 265 264 263 261 259 258 257
277 277 277 277 276 276 275 275 275 275 275 275 275 274 274 273 272 271 270 270 269 268 267 265 264 263 262 262 262 261 260 259 259 259 259 259 259 259 259 259 260 261 263 264 265 264 263 262 261 260 259 258
277 276 276 275 275 275 275 275 276 275 276 276 276 276 277 276 274 272 272 271 271 270 269 268 267 266 265 263 262 262 261 260 259 259 259 259 258 258 258 258 258 258 259 260 261 262 261 260 259 259 258 257
277 276 275 275 275 275 274 274 274 275 276 276 277 276 275 273 272 271 271 270 270 271 271 271 270 268 267 265 264 263 262 261 260 260 259 259 259 258 258 258 258 257 257 257 257 257 258 258 257 256 255 255
276 276 276 276 276 275 275 274 275 276 276 276 275 274 273 270 269 269 268 267 267 268 269 270 269 268 266 265 263 263 262 261 260 259 258 258 258 258 257 256 256 256 256 255 255 255 255 255 255 255 255 254
275 276 276 276 277 278 276 276 277 277 276 275 274 273 272 271 269 268 266 266 265 266 266 266 266 266 265 263 262 260 260 259 259 258 258 257 256 256 256 255 255 255 255 254 254 253 253 253 253 253 253 254
276 277 278 278 279 280 279 279 278 278 277 276 274 273 272 272 271 270 268 267 266 265 264 264 264 265 265 264 263 261 259 258 257 257 257 256 256 256 255 255 254 254 254 254 253 253 253 253 253 252 252 252
277 277 277 278 278 278 278 278 278 278 278 277 276 275 273 272 271 270 269 268 268 267 266 265 265 265 265 264 264 263 262 260 259 257 256 256 256 256 255 254 254 254 253 253 253 253 253 253 253 253 252 252
278 278 277 277 277 277 276 276 277 277 277 277 277 276 275 274 272 271 270 269 269 269 269 270 269 269 267 265 265 264 263 262 261 260 258 257 256 256 256 255 254 254 253 253 253 253 253 253 253 253 253 253
283 281 279 279 278 278 278 278 279 279 278 278 278 277 276 275 274 274 273 273 273 273 273 274 274 273 272 269 267 266 265 264 263 262 260 259 258 257 256 255 255 254 253 253 253 253 253 253 252 253 253 253
286 283 281 280 280 279 280 280 281 281 280 280 279 278 277 276 276 275 275 275 275 276 276 276 276 275 274 272 270 269 267 266 265 264 262 260 259 258 257 256 255 254 254 254 253 253 253 253 253 252 252 253
287 286 284 282 281 281 282 282 282 282 282 281 280 278 277 277 277 277 276 276 276 276 276 276 276 275 274 272 271 270 269 267 266 265 263 261 259 258 257 256 255 254 254 254 254 253 253 253 253 253 253 253
290 288 286 285 284 283 283 284 284 284 284 283 282 281 280 279 279 279 279 278 278 277 277 276 276 275 273 272 271 270 269 268 266 265 263 262 260 258 257 256 255 254 254 254 254 254 253 253 253 253 254 254
293 291 289 288 286 285 284 284 284 284 284 284 284 284 283 283 282 282 282 281 281 280 279 278 277 276 275 273 272 271 270 269 268 266 264 262 260 259 257 256 255 254 253 253 253 254 254 254 254 254 254 253
293 292 291 290 288 286 285 284 283 283 283 283 283 284 284 284 284 284 284 284 283 283 282 281 280 279 278 276 275 274 272 271 270 268 266 264 262 260 258 257 255 255 254 253 253 253 254 255 255 255 255 254
293 292 291 290 288 287 285 284 283 283 283 283 283 283 283 284 284 285 285 285 285 284 284 283 282 281 281 280 278 277 275 273 272 270 268 266 264 262 260 258 257 255 255 254 254 254 254 255 255 256 256 255
294 293 292 290 289 287 286 285 284 283 282 282 282 282 282 283 283 284 284 284 285 285 284 284 283 283 283 282 281 280 278 276 274 272 270 268 266 264 263 261 259 258 256 255 255 255 255 255 255 255 256 256
296 294 292 291 289 288 287 286 285 284 283 283 282 282 282 282 282 283 283 284 284 284 284 284 283 283 283 283 282 281 280 278 276 274 272 270 268 265 264 263 261 260 259 257 256 256 256 255 255 255 255 256
298 296 294 293 291 290 289 288 286 285 285 284 284 284 283 283 283 283 283 283 284 284 284 284 284 284 283 283 282 281 280 279 277 276 274 273 271 268 265 263 262 261 261 259 258 257 257 256 255 255 255 256
299 298 297 295 294 292 291 290 289 288 287 286 286 285 285 285 284 284 284 283 283 283 283 283 284 284 284 283 282 281 280 279 277 276 274 273 272 270 268 265 264 262 261 261 260 259 258 257 256 256 256 256
300 299 298 296 295 293 292 291 291 290 289 288 287 287 286 286 286 285 285 285 284 284 284 283 283 283 283 283 282 281 280 279 277 276 275 273 271 271 270 268 266 264 263 261 260 260 259 258 257 257 257 257
301 299 298 296 295 293 292 291 290 290 289 289 289 288 288 288 288 287 287 287 286 286 285 285 284 284 283 283 282 281 280 279 278 277 276 274 272 271 270 270 268 266 265 263 261 260 259 258 258 258 258 257
301 299 298 296 295 294 292 292 290 290 289 289 289 289 289 289 288 288 288 287 287 287 286 286 285 284 283 283 282 281 280 279 279 278 276 275 274 272 271 270 270 268 267 265 263 261 260 259 259 258 258 258
300 299 297 295 294 293 292 291 290 289 289 288 288 288 288 288 287 287 287 287 286 286 286 285 284 284 283 282 281 280 279 278 278 277 276 276 275 274 272 271 270 269 269 267 265 263 262 261 261 260 259 259
297 295 294 293 291 290 289 289 288 287 287 286 286 286 286 286 285 285 284 284 284 284 283 283 282 282 281 280 279 278 277 277 276 276 275 275 274 274 273 272 271 270 270 269 268 266 264 262 261 261 261 261
292 292 291 291 290 290 288 288 287 287 286 286 285 285 285 285 284 283 283 282 282 281 281 280 280 279 278 277 276 276 275 275 275 274 274 273 273 272 272 272 271 271 270 270 269 268 267 265 262 261 261 261
292 291 291 291 291 290 289 289 289 288 288 287 287 287 286 286 285 284 283 283 282 281 280 279 278 277 276 275 274 273 272 272 272 272 272 271 271 270 270 269 269 270 270 270 270 269 269 268 266 263 261 260
293 292 292 292 291 291 290 290 290 290 289 289 289 288 288 287 286 286 285 284 283 282 281 280 278 277 276 274 273 272 271 270 269 269 269 268 268 268 268 267 266 266 267 268 269 269 269 268 267 266 264 262
297 296 296 295 294 293 292 291 291 290 290 290 289 289 289 288 288 287 286 286 285 284 283 282 280 279 278 276 274 273 272 270 269 268 268 267 266 266 266 266 265 264 264 265 266 266 267 267 267 267 266 265
299 298 298 297 297 297 296 294 293 293 292 292 292 291 291 290 290 289 288 288 287 286 285 284 283 282 281 279 278 276 274 273 271 270 269 268 267 266 265 265 264 263 262 262 263 264 265 265 266 266 266 266
Height
3144 3143 3143 3142 3142 3142 3141 3140 3139 3139 3138 3137 3137 3136 3136 3136 3135 3135 3134 3133 3133 3133 3133 3132 3132 3132 3132 3131 3131 3131 3131 3131 3131 3131 3131 3131 3131 3131 3130 3130 3129 3129 3129 3129 3130 3130 3130 3129 3129 3129 3129 3129
3142 3141 3141 3140 3139 3139 3138 3138 3137 3136 3136 3135 3134 3134 3134 3134 3133 3132 3131 3130 3130 3130 3130 3130 3129 3129 3129 3128 3128 3128 3129 3128 3128 3128 3128 3128 3128 3128 3128 3128 3128 3127 3126 3126 3127 3127 3127 3127 3127 3127 3127 3127
3140 3139 3138 3138 3137 3136 3136 3135 3134 3134 3133 3132 3131 3131 3131 3131 3130 3129 3128 3127 3127 3127 3127 3127 3126 3126 3126 3126 3126 3125 3126 3126 3125 3125 3125 3125 3125 3125 3125 3125 3125 3125 3125 3124 3124 3124 3124 3124 3124 3124 3124 3124
3137 3137 3136 3135 3134 3134 3133 3133 3132 3131 3130 3130 3129 3128 3128 3128 3127 3126 3125 3124 3124 3123 3123 3124 3124 3124 3124 3123 3123 3122 3122 3122 3122 3122 3122 3122 3123 3123 3123 3123 3123 3123 3123 3122 3122 3122 3122 3122 3122 3122 3122 3121
3134 3133 3133 3132 3132 3131 3131 3130 3130 3129 3128 3128 3127 3126 3125 3124 3123 3123 3123 3122 3121 3121 3121 3121 3121 3121 3120 3120 3120 3119 3120 3120 3120 3120 3120 3120 3120 3120 3120 3120 3120 3120 3120 3120 3120 3120 3119 3119 3119 3119 3119 3119
3130 3130 3130 3129 3129 3128 3128 3128 3127 3127 3126 3125 3124 3123 3122 3121 3121 3121 3120 3119 3119 3119 3119 3118 3118 3117 3117 3117 3117 3117 3117 3117 3117 3117 3117 3117 3117 3117 3117 3117 3117 3117 3117 3117 3117 3117 3117 3116 3116 3116 3116 3116
3128 3127 3127 3126 3126 3125 3125 3125 3125 3124 3124 3123 3122 3120 3119 3118 3118 3119 3118 3117 3117 3117 3117 3116 3115 3115 3114 3114 3114 3114 3114 3114 3114 3114 3114 3115 3115 3115 3115 3114 3114 3114 3114 3114 3114 3114 3114 3114 3113 3113 3113 3113
3125 3124 3124 3123 3123 3122 3122 3121 3121 3121 3120 3120 3119 3118 3117 3116 3116 3116 3115 3115 3115 3115 3114 3114 3113 3112 3111 3111 3111 3111 3111 3111 3111 3111 3111 3112 3112 3112 3112 3111 3111 3111 3111 3111 3111 3111 3110 3110 3110 3110 3110 3110
3122 3122 3121 3121 3120 3120 3119 3118 3118 3117 3117 3117 3116 3116 3115 3114 3113 3112 3112 3112 3111 3111 3111 3111 3110 3109 3109 3108 3108 3108 3108 3108 3108 3108 3108 3108 3108 3108 3108 3108 3108 3107 3107 3107 3107 3107 3107 3107 3107 3107 3107 3107
3120 3119 3119 3118 3117 3117 3116 3115 3115 3115 3115 3114 3114 3113 3112 3111 3110 3109 3109 3108 3108 3108 3107 3107 3107 3106 3106 3106 3105 3105 3105 3105 3105 3105 3105 3105 3105 3104 3104 3104 3104 3104 3103 3103 3103 3103 3103 3103 3103 3103 3103 3103
3118 3117 3116 3115 3115 3114 3114 3113 3113 3113 3113 3112 3112 3111 3109 3108 3107 3106 3106 3105 3105 3104 3104 3103 3103 3102 3102 3102 3102 3101 3101 3101 3101 3101 3101 3101 3101 3100 3099 3099 3099 3099 3099 3099 3099 3099 3099 3099 3100 3100 3099 3100
3115 3114 3114 3113 3112 3111 3111 3111 3110 3110 3110 3109 3109 3107 3106 3105 3104 3104 3103 3102 3102 3101 3100 3100 3099 3099 3098 3098 3098 3097 3097 3097 3096 3096 3096 3096 3096 3095 3095 3095 3095 3095 3095 3095 3095 3096 3096 3096 3096 3096 3096 3096
3113 3112 3111 3111 3110 3109 3109 3108 3108 3107 3107 3106 3105 3104 3103 3102 3101 3101 3100 3099 3099 3098 3097 3097 3096 3095 3095 3094 3094 3093 3093 3092 3092 3092 3091 3091 3091 3091 3090 3091 3091 3091 3091 3091 3091 3091 3092 3091 3091 3092 3092 3092
3111 3110 3109 3108 3107 3106 3106 3105 3105 3104 3103 3102 3102 3101 3100 3099 3098 3097 3097 3096 3095 3094 3094 3093 3092 3092 3092 3091 3090 3089 3089 3088 3088 3087 3087 3086 3086 3086 3086 3086 3086 3086 3087 3087 3087 3087 3087 3087 3087 3087 3088 3088
3109 3108 3107 3106 3104 3103 3102 3101 3101 3100 3099 3098 3098 3097 3096 3095 3094 3093 3092 3092 3091 3090 3089 3089 3088 3087 3087 3087 3086 3085 3085 3084 3083 3083 3082 3081 3081 3081 3081 3081 3081 3081 3082 3082 3082 3082 3082 3082 3082 3082 3083 3083
3106 3105 3104 3103 3101 3100 3099 3098 3097 3096 3095 3094 3093 3092 3091 3090 3089 3089 3088 3087 3086 3085 3085 3084 3083 3082 3082 3082 3082 3081 3080 3079 3078 3078 3077 3076 3076 3076 3076 3076 3076 3076 3076 3077 3077 3077 3077 3077 3077 3077 3078 3078
3103 3101 3100 3099 3098 3097 3095 3094 3093 3092 3091 3090 3089 3088 3087 3086 3085 3084 3083 3082 3081 3080 3080 3079 3078 3077 3077 3077 3076 3076 3075 3074 3073 3072 3071 3071 3070 3070 3070 3070 3070 3070 3070 3071 3071 3072 3072 3072 3072 3072 3073 3073
3100 3098 3097 3095 3094 3093 3092 3091 3090 3088 3087 3086 3085 3084 3083 3082 3081 3079 3078 3077 3076 3075 3074 3074 3073 3072 3071 3071 3070 3070 3069 3068 3068 3067 3066 3065 3065 3064 3064 3064 3064 3064 3065 3065 3066 3066 3066 3066 3067 3067 3067 3068
3096 3095 3093 3092 3090 3089 3088 3087 3086 3084 3083 3082 3081 3080 3078 3077 3077 3075 3074 3073 3072 3071 3069 3068 3067 3067 3066 3066 3065 3064 3063 3063 3062 3061 3060 3060 3059 3059 3059 3058 3058 3058 3058 3059 3059 3060 3060 3061 3061 3062 3062 3063
3093 3092 3090 3088 3087 3085 3084 3083 3082 3080 3079 3077 3076 3075 3074 3073 3072 3071 3069 3068 3067 3066 3065 3063 3062 3062 3061 3060 3059 3059 3058 3057 3056 3055 3055 3054 3053 3053 3053 3053 3053 3052 3052 3052 3053 3054 3054 3055 3055 3056 3056 3057
3091 3089 3087 3086 3084 3082 3080 3079 3077 3076 3075 3073 3072 3070 3069 3068 3067 3066 3065 3063 3062 3061 3060 3059 3057 3056 3055 3054 3053 3053 3052 3051 3050 3049 3049 3049 3048 3047 3047 3047 3047 3046 3046 3046 3047 3048 3048 3049 3049 3049 3050 3050
3088 3087 3085 3083 3081 3079 3077 3075 3073 3072 3071 3069 3067 3066 3064 3063 3061 3060 3059 3058 3057 3056 3054 3053 3052 3051 3050 3048 3047 3046 3046 3045 3044 3043 3042 3043 3042 3041 3040 3040 3040 3040 3040 3040 3041 3041 3042 3042 3042 3043 3044 3044
3085 3084 3082 3080 3079 3077 3074 3072 3070 3068 3066 3064 3063 3061 3059 3058 3056 3054 3053 3052 3051 3050 3048 3047 3046 3045 3044 3042 3041 3040 3039 3038 3037 3036 3035 3035 3036 3036 3035 3034 3033 3033 3033 3033 3034 3034 3035 3036 3036 3037 3037 3037
3082 3080 3079 3077 3075 3073 3071 3069 3067 3064 3062 3060 3058 3056 3054 3052 3050 3049 3047 3046 3045 3044 3042 3041 3040 3039 3038 3036 3035 3033 3032 3031 3030 3029 3029 3028 3028 3028 3028 3027 3026 3025 3025 3026 3027 3027 3028 3029 3029 3030 3030 3030
3078 3077 3075 3073 3071 3069 3067 3065 3063 3061 3058 3056 3054 3052 3050 3048 3045 3043 3042 3040 3039 3037 3036 3035 3034 3033 3031 3030 3028 3027 3026 3025 3024 3023 3022 3022 3021 3020 3021 3021 3019 3017 3017 3017 3018 3019 3020 3022 3022 3023 3023 3023
3075 3073 3071 3069 3067 3064 3062 3060 3058 3056 3053 3051 3049 3046 3044 3042 3039 3037 3035 3034 3032 3031 3029 3028 3027 3026 3025 3023 3022 3020 3019 3018 3017 3016 3016 3015 3015 3014 3013 3013 3012 3011 3010 3009 3009 3009 3011 3013 3014 3015 3015 3015
3071 3068 3066 3064 3061 3059 3057 3054 3052 3050 3047 3045 3042 3040 3037 3035 3032 3030 3028 3026 3024 3023 3022 3021 3019 3018 3017 3016 3014 3013 3012 3011 3010 3009 3008 3008 3007 3007 3007 3006 3005 3004 3003 3001 3001 3001 3001 3003 3005 3007 3008 3007
3066 3063 3061 3058 3056 3053 3050 3048 3045 3043 3040 3038 3035 3032 3030 3027 3024 3022 3020 3018 3016 3015 3014 3013 3011 3010 3009 3007 3006 3005 3004 3003 3002 3001 3001 3000 2999 2999 2999 2999 2999 2998 2996 2994 2994 2993 2993 2994 2994 2996 2999 3000
3061 3058 3055 3053 3050 3047 3045 3042 3039 3037 3034 3031 3029 3026 3024 3021 3017 3015 3013 3011 3009 3007 3006 3005 3004 3002 3001 2999 2998 2996 2996 2995 2994 2993 2992 2991 2991 2991 2990 2991 2992 2991 2989 2988 2987 2986 2985 2986 2985 2986 2988 2990
3055 3052 3049 3046 3044 3042 3039 3037 3034 3031 3028 3025 3023 3020 3017 3015 3011 3008 3006 3004 3001 3000 2999 2997 2996 2995 2993 2992 2990 2988 2988 2987 2986 2985 2984 2983 2983 2982 2981 2981 2982 2983 2983 2981 2980 2979 2978 2978 2977 2978 2979 2979
3049 3046 3043 3040 3038 3035 3032 3030 3027 3024 3022 3019 3016 3014 3011 3008 3005 3002 3000 2997 2995 2993 2991 2990 2989 2987 2986 2984 2982 2981 2980 2979 2978 2977 2977 2976 2975 2974 2973 2973 2973 2973 2974 2974 2973 2972 2971 2970 2969 2969 2970 2970